Palma De Mallorca, Spain

12:59 PM CEST on August 30, 2016 (GMT +0200)
Palma De Mallorca

Weather History for LEPA - May, 2013

Change the Weather History Date:

Thursday, May 16, 2013

  Actual Average Record
Temperature  
Mean Temperature 62 °F -  
Max Temperature 67 °F 77 °F 84 °F (2006)
Min Temperature 55 °F 57 °F 47 °F (2014)
Degree Days  
Heating Degree Days 3    
Growing Degree Days 12 (Base 50)    
Moisture  
Dew Point 52 °F    
Average Humidity 73    
Maximum Humidity 100    
Minimum Humidity 40    
Precipitation  
Precipitation 0.00 in 0.03 in - ()
Sea Level Pressure  
Sea Level Pressure 29.52 in    
Wind  
Wind Speed 5 mph ()    
Max Wind Speed 17 mph    
Max Gust Speed 28 mph    
Visibility 6.9 miles    
Events Rain , Thunderstorm    
Averages and records for this station are not official NWS values.
T = Trace of Precipitation, MM = Missing Value Source: Averaged Metar Reports

Daily Weather History Graph

Daily Weather History Graph

Search for Another Location

Airport or City:

Trip Planner

Search our weather history database for the weather conditions in past years. The results will help you decide how hot, cold, wet, or windy it might be!

Date:

Astronomy

May. 16, 2013 Rise Set
Actual Time 6:34 AM CEST 8:57 PM CEST
Civil Twilight 6:03 AM CEST 9:27 PM CEST
Nautical Twilight 5:25 AM CEST 10:05 PM CEST
Astronomical Twilight 4:44 AM CEST 10:47 PM CEST
Moon 11:52 AM CEST (5/16) 1:09 AM CEST (5/16)
Length of Visible Light 15h 24m
Length of Day
14h 23m
Waxing Crescent, 33% of the Moon is Illuminated
May 16
Waxing Crescent
May 18
First Quarter
May 25
Full
May 31
Last Quarter
Jun 8
New

Hourly Weather History & Observations

Time (CEST) Temp. Dew Point Humidity Pressure Visibility Wind Dir Wind Speed Gust Speed Precip Events Conditions
12:00 AM 64.4 °F 60.8 °F 88% 29.50 in 6.2 mi SSW 2.3 mph - N/A   Scattered Clouds
12:30 AM 64.4 °F 60.8 °F 88% 29.50 in 6.2 mi Variable 2.3 mph - N/A   Partly Cloudy
1:00 AM 64.4 °F 60.8 °F 88% 29.50 in 6.2 mi Variable 1.2 mph - N/A Thunderstorm Thunderstorm
1:30 AM 62.6 °F 60.8 °F 94% 29.50 in 6.2 mi Variable 2.3 mph - N/A   Partly Cloudy
2:00 AM 62 °F 58 °F 84% 29.50 in 9 mi ESE 2.3 mph - - Rain Light Rain
2:00 AM 62.6 °F 60.8 °F 94% 29.50 in 6.2 mi Calm Calm - N/A   Partly Cloudy
2:30 AM 62.6 °F 60.8 °F 94% 29.47 in 6.2 mi Calm Calm - N/A   Partly Cloudy
3:00 AM 62.6 °F 60.8 °F 94% 29.47 in 6.2 mi Calm Calm - N/A   Partly Cloudy
3:30 AM 62.6 °F 60.8 °F 94% 29.47 in 6.2 mi Calm Calm - N/A   Partly Cloudy
4:00 AM 60.8 °F 59.0 °F 94% 29.44 in 6.2 mi Calm Calm - N/A   Partly Cloudy
4:30 AM 60.8 °F 60.8 °F 100% 29.44 in 6.2 mi Calm Calm - N/A   Partly Cloudy
5:00 AM 60.8 °F 59.0 °F 94% 29.44 in 6.2 mi ESE 1.2 mph - N/A   Partly Cloudy
5:30 AM 59.0 °F 59.0 °F 100% 29.44 in 6.2 mi Calm Calm - N/A   Partly Cloudy
6:00 AM 59.0 °F 59.0 °F 100% 29.44 in 6.2 mi ENE 3.5 mph - N/A   Partly Cloudy
6:30 AM 59.0 °F 59.0 °F 100% 29.44 in 6.2 mi Variable 2.3 mph - N/A   Partly Cloudy
7:00 AM 59.0 °F 59.0 °F 100% 29.44 in 6.2 mi Variable 2.3 mph - N/A   Partly Cloudy
7:30 AM 60.8 °F 59.0 °F 94% 29.44 in 6.2 mi WNW 3.5 mph - N/A   Partly Cloudy
8:00 AM 61 °F 55 °F 74% 29.47 in 16 mi NNW 11.5 mph - -   Mostly Cloudy
8:00 AM 60.8 °F 57.2 °F 88% 29.47 in 6.2 mi NNW 5.8 mph - N/A   Partly Cloudy
8:30 AM 60.8 °F 57.2 °F 88% 29.47 in 6.2 mi North 6.9 mph - N/A   Partly Cloudy
9:00 AM 64.4 °F 55.4 °F 73% 29.47 in 6.2 mi North 6.9 mph - N/A   Partly Cloudy
9:30 AM 64.4 °F 55.4 °F 73% 29.47 in 6.2 mi NNW 8.1 mph - N/A   Partly Cloudy
10:00 AM 66.2 °F 53.6 °F 64% 29.50 in 6.2 mi NW 4.6 mph - N/A   Scattered Clouds
10:30 AM 64.4 °F 57.2 °F 77% 29.50 in 6.2 mi NE 10.4 mph - N/A   Scattered Clouds
11:00 AM 62.6 °F 55.4 °F 77% 29.50 in 6.2 mi ENE 10.4 mph - N/A   Scattered Clouds
11:30 AM 62.6 °F 55.4 °F 77% 29.50 in 6.2 mi ENE 10.4 mph - N/A   Mostly Cloudy
12:00 PM 62.6 °F 53.6 °F 72% 29.53 in 6.2 mi East 4.6 mph - N/A   Mostly Cloudy
12:30 PM 60.8 °F 51.8 °F 72% 29.53 in 6.2 mi NW 11.5 mph - N/A   Mostly Cloudy
1:00 PM 60.8 °F 51.8 °F 72% 29.53 in 6.2 mi NW 16.1 mph - N/A   Mostly Cloudy
1:30 PM 57.2 °F 51.8 °F 82% 29.56 in 6.2 mi NW 17.3 mph - N/A Rain Light Rain
2:00 PM 59 °F 47 °F 53% 29.57 in 16 mi NNW 13.8 mph - -   Partly Cloudy
2:00 PM 59.0 °F 48.2 °F 67% 29.56 in 6.2 mi NNW 16.1 mph - N/A   Scattered Clouds
2:30 PM 59.0 °F 46.4 °F 63% 29.56 in 6.2 mi NW 13.8 mph - N/A   Scattered Clouds
3:00 PM 60.8 °F 46.4 °F 59% 29.56 in 6.2 mi NW 11.5 mph - N/A   Scattered Clouds
3:30 PM 59.0 °F 46.4 °F 63% 29.56 in 6.2 mi NW 11.5 mph 24.2 mph N/A   Scattered Clouds
4:00 PM 62.6 °F 44.6 °F 52% 29.56 in 6.2 mi NNW 10.4 mph 23.0 mph N/A   Scattered Clouds
4:30 PM 64.4 °F 42.8 °F 45% 29.56 in 6.2 mi NW 16.1 mph - N/A   Partly Cloudy
5:00 PM 64.4 °F 42.8 °F 45% 29.56 in 6.2 mi NW 16.1 mph - N/A   Partly Cloudy
5:30 PM 64.4 °F 42.8 °F 45% 29.56 in 6.2 mi NNW 16.1 mph 27.6 mph N/A   Partly Cloudy
6:00 PM 64.4 °F 42.8 °F 45% 29.56 in 6.2 mi NNW 12.7 mph - N/A   Partly Cloudy
6:30 PM 64.4 °F 41.0 °F 42% 29.56 in 6.2 mi NNW 11.5 mph 23.0 mph N/A   Partly Cloudy
7:00 PM 64.4 °F 39.2 °F 40% 29.56 in 6.2 mi NNW 10.4 mph 21.9 mph N/A   Partly Cloudy
7:30 PM 62.6 °F 42.8 °F 48% 29.59 in 6.2 mi NW 6.9 mph - N/A   Partly Cloudy
8:00 PM 67 °F 50 °F 43% 29.60 in 19 mi WSW 12.7 mph - -   Scattered Clouds
8:00 PM 60.8 °F 46.4 °F 59% 29.59 in 6.2 mi West 12.7 mph - N/A   Partly Cloudy
8:30 PM 60.8 °F 46.4 °F 59% 29.59 in 6.2 mi West 11.5 mph - N/A   Partly Cloudy
9:00 PM 59.0 °F 44.6 °F 59% 29.59 in 6.2 mi WSW 9.2 mph - N/A   Partly Cloudy
9:30 PM 59.0 °F 44.6 °F 59% 29.62 in 6.2 mi WSW 4.6 mph - N/A   Partly Cloudy
10:00 PM 59.0 °F 46.4 °F 63% 29.62 in 6.2 mi SW 3.5 mph - N/A   Partly Cloudy
10:30 PM 60.8 °F 46.4 °F 59% 29.62 in 6.2 mi South 3.5 mph - N/A   Partly Cloudy
11:00 PM 57.2 °F 46.4 °F 67% 29.62 in 6.2 mi SE 2.3 mph - N/A   Partly Cloudy
11:30 PM 55.4 °F 48.2 °F 77% 29.62 in 6.2 mi ENE 3.5 mph - N/A   Partly Cloudy